Regional Weather Roundup
Issued by NWS

Home | Current Version | Previous Version | Graphics & Text | Print | Product List | Glossary Off
Versions: 1 2 3 4 5 6 7 8 9 10 11 12 13 14 15 16 17 18 19 20 21 22 23 24 25 26 27 28 29 30 31 32 33 34 35 36 37 38 39 40 41 42 43 44 45 46 47 48 49 50

905
ASUS43 KTOP 162008
RWRKS

WEATHER ROUNDUP FOR KANSAS
NATIONAL WEATHER SERVICE GOODLAND KS
300 PM CDT WED AUG 16 2017

NOTE:  "FAIR" INDICATES FEW OR NO CLOUDS BELOW 12,000 FEET WITH NO
SIGNIFICANT WEATHER AND/OR OBSTRUCTIONS TO VISIBILITY.

KSZ001>006-013>018-027>032-041>047-162100-
NORTHWEST KANSAS

CITY           SKY/WX    TMP DP  RH WIND       PRES   REMARKS
GOODLAND       MOSUNNY   78  57  48 NW10      30.00F
HAYS           MOSUNNY   80  62  54 NW13      29.91F
HILL CITY      PTSUNNY   79  60  52 NW9       29.92F
RUSSELL        MOSUNNY   81  62  52 NW13G22   29.88F
$$

KSZ061>065-074>080-084>089-162100-
SOUTHWEST KANSAS

CITY           SKY/WX    TMP DP  RH WIND       PRES   REMARKS
DODGE CITY     SUNNY     86  59  39 N10G24    29.93F
ELKHART          N/A     82  56  40 NW12        N/A
GARDEN CITY    MOSUNNY   83  59  44 NW16      29.96F
GREAT BEND     PTSUNNY   79  64  60 NW9G17    29.91S
LIBERAL        SUNNY     84  60  44 NW15G21   29.97S
PRATT          MOSUNNY   84  66  54 N15G23    29.88S
$$

KSZ066>073-081>083-090>101-162100-
SOUTHEAST KANSAS

CITY           SKY/WX    TMP DP  RH WIND       PRES   REMARKS
CHANUTE        MOSUNNY   85  75  72 S15       29.85R
COFFEYVILLE    MOSUNNY   87  77  72 S12       29.83F HX  99
HUTCHINSON     PTSUNNY   81  68  64 N13       29.85F
MEDICINE LODGE   N/A     87  70  56 S7        29.82F
NEWTON         PTSUNNY   80  72  76 N15       29.84F
PARSONS        SUNNY     86  76  71 S9        29.85  HX  96
WICHITA INTL   TSTM      77  68  73 SE9       29.81F VSB 1/2
WICHITA JABRA  TSTM      83  75  77 S8        29.81F
WICHITA MCCONL PTSUNNY   86  73  66 S13G18    29.80F THUNDER
WINFIELD       PTSUNNY   88  74  63 SW14G21   29.83F HX  96
$$

KSZ007>012-019>026-033>040-048>060-102>105-162100-
NORTHEAST KANSAS

CITY           SKY/WX    TMP DP  RH WIND       PRES   REMARKS
CONCORDIA      MOSUNNY   81  65  58 NW14G20   29.85F
EMPORIA        MOSUNNY   86  73  65 SW16      29.83S
LAWRENCE       CLOUDY    83  72  69 SW9       29.82R
MANHATTAN      CLOUDY    80  69  69 W9        29.84S
MARYSVILLE     PTSUNNY   82  64  54 W12       29.82F
OLATHE IND     PTSUNNY   84  71  65 S13       29.82R
OLATHE EXE     MOSUNNY   85  73  67 SW10      29.82S
SALINA         CLOUDY    81  64  56 W14       29.87S
TOPEKA BILLARD CLOUDY    82  71  69 W10G18    29.82R
TOPEKA FORBES  PTSUNNY   85  74  69 W12       29.82S
$$




USA.gov is the U.S. government's official web portal to all federal, state and local government web resources and services.